Time,TemperatureF,DewpointF,PressureIn,WindDirection,WindDirectionDegrees,WindSpeedMPH,WindSpeedGustMPH,Humidity,HourlyPrecipIn,Conditions,Clouds,dailyrainin,SolarRadiationWatts/m^2,SoftwareType,DateUTC
2013-02-24 00:21:00,22.0,20.0,-100.00,NW,306,1.0,4.0,92,0.00,,,0.00,0.000000,,2013-02-24 09:21:00,
2013-02-24 00:31:00,22.0,20.0,-100.00,NW,306,1.0,4.0,92,0.00,,,0.00,0.000000,,2013-02-24 09:31:00,
2013-02-24 00:41:00,22.0,20.0,-100.00,NW,306,1.0,4.0,92,0.00,,,0.00,0.000000,,2013-02-24 09:41:00,
2013-02-24 00:51:00,22.0,20.0,-100.00,NW,306,1.0,4.0,92,0.00,,,0.00,0.000000,,2013-02-24 09:51:00,
2013-02-24 01:21:00,22.0,20.0,-100.00,NNE,30,1.0,2.0,92,0.00,,,0.00,0.000000,,2013-02-24 10:21:00,
2013-02-24 01:31:00,22.0,20.0,-100.00,NNE,30,1.0,2.0,92,0.00,,,0.00,0.000000,,2013-02-24 10:31:00,
2013-02-24 01:41:00,22.0,20.0,-100.00,NNE,30,1.0,2.0,92,0.00,,,0.00,0.000000,,2013-02-24 10:41:00,
2013-02-24 01:51:00,22.0,20.0,-100.00,NNE,30,1.0,2.0,92,0.00,,,0.00,0.000000,,2013-02-24 10:51:00,
2013-02-24 02:21:00,23.0,21.0,-100.00,NE,52,0.0,1.0,92,0.00,,,0.00,0.000000,,2013-02-24 11:21:00,
2013-02-24 02:32:00,23.0,21.0,-100.00,NE,52,0.0,1.0,92,0.00,,,0.00,0.000000,,2013-02-24 11:32:00,
2013-02-24 02:41:00,23.0,21.0,-100.00,NE,52,0.0,1.0,92,0.00,,,0.00,0.000000,,2013-02-24 11:41:00,
2013-02-24 02:52:00,23.0,21.0,-100.00,NE,52,0.0,1.0,92,0.00,,,0.00,0.000000,,2013-02-24 11:52:00,
2013-02-24 03:21:00,23.0,21.0,-100.00,SE,136,0.0,2.0,93,0.00,,,0.00,0.000000,,2013-02-24 12:21:00,
2013-02-24 03:32:00,23.0,21.0,-100.00,SE,136,0.0,2.0,93,0.00,,,0.00,0.000000,,2013-02-24 12:32:00,
2013-02-24 03:46:00,23.0,21.0,-100.00,SE,136,0.0,2.0,93,0.00,,,0.00,0.000000,,2013-02-24 12:46:00,
2013-02-24 03:54:00,23.0,21.0,-100.00,SE,136,0.0,2.0,93,0.00,,,0.00,0.000000,,2013-02-24 12:54:00,
2013-02-24 04:25:00,23.0,21.0,-100.00,East,94,0.0,4.0,93,0.00,,,0.00,0.000000,,2013-02-24 13:25:00,
2013-02-24 04:33:00,23.0,21.0,-100.00,East,94,0.0,4.0,93,0.00,,,0.00,0.000000,,2013-02-24 13:33:00,
2013-02-24 04:43:00,23.0,21.0,-100.00,East,94,0.0,4.0,93,0.00,,,0.00,0.000000,,2013-02-24 13:43:00,
2013-02-24 04:51:00,23.0,21.0,-100.00,East,94,0.0,4.0,93,0.00,,,0.00,0.000000,,2013-02-24 13:51:00,
2013-02-24 05:23:00,19.0,17.0,-100.00,SSW,199,2.0,3.0,91,0.00,,,0.00,0.000000,,2013-02-24 14:23:00,
2013-02-24 05:32:00,19.0,17.0,-100.00,SSW,199,2.0,3.0,91,0.00,,,0.00,0.000000,,2013-02-24 14:32:00,
2013-02-24 05:43:00,19.0,17.0,-100.00,SSW,199,2.0,3.0,91,0.00,,,0.00,0.000000,,2013-02-24 14:43:00,
2013-02-24 05:52:00,19.0,17.0,-100.00,SSW,199,2.0,3.0,91,0.00,,,0.00,0.000000,,2013-02-24 14:52:00,
2013-02-24 06:12:00,19.0,17.0,-100.00,ENE,63,1.0,3.0,91,-99.99,,,-99.99,,,2013-02-24 15:12:00,
2013-02-24 06:22:00,19.0,17.0,-100.00,ENE,63,1.0,3.0,91,0.00,,,0.00,0.000000,,2013-02-24 15:22:00,
2013-02-24 06:32:00,19.0,17.0,-100.00,ENE,63,1.0,3.0,91,0.00,,,0.00,0.000000,,2013-02-24 15:32:00,
2013-02-24 06:42:00,19.0,17.0,-100.00,ENE,63,1.0,3.0,91,0.00,,,0.00,0.000000,,2013-02-24 15:42:00,
2013-02-24 06:52:00,19.0,17.0,-100.00,ENE,63,1.0,3.0,91,0.00,,,0.00,0.000000,,2013-02-24 15:52:00,
2013-02-24 07:21:00,18.0,16.0,-100.00,SSE,159,1.0,3.0,90,0.00,,,0.00,0.000000,,2013-02-24 16:21:00,
2013-02-24 07:31:00,18.0,16.0,-100.00,SSE,159,1.0,3.0,90,0.00,,,0.00,0.000000,,2013-02-24 16:31:00,
2013-02-24 07:41:00,18.0,16.0,-100.00,SSE,159,1.0,3.0,90,0.00,,,0.00,0.000000,,2013-02-24 16:41:00,
2013-02-24 07:52:00,18.0,16.0,-100.00,SSE,159,1.0,3.0,90,0.00,,,0.00,0.000000,,2013-02-24 16:52:00,
2013-02-24 08:21:00,16.0,13.0,-100.00,WNW,302,2.0,3.0,88,0.00,,,0.00,0.000000,,2013-02-24 17:21:00,
2013-02-24 08:32:00,16.0,13.0,-100.00,WNW,302,2.0,3.0,88,0.00,,,0.00,0.000000,,2013-02-24 17:32:00,
2013-02-24 08:41:00,16.0,13.0,-100.00,WNW,302,2.0,3.0,88,0.00,,,0.00,0.000000,,2013-02-24 17:41:00,
2013-02-24 08:52:00,16.0,13.0,-100.00,WNW,302,2.0,3.0,88,0.00,,,0.00,0.000000,,2013-02-24 17:52:00,
2013-02-24 09:22:00,19.0,17.0,-100.00,North,10,2.0,5.0,90,0.00,,,0.00,0.000000,,2013-02-24 18:22:00,
2013-02-24 09:31:00,19.0,17.0,-100.00,North,10,2.0,5.0,90,0.00,,,0.00,0.000000,,2013-02-24 18:31:00,
2013-02-24 09:42:00,19.0,17.0,-100.00,North,10,2.0,5.0,90,0.00,,,0.00,0.000000,,2013-02-24 18:42:00,
2013-02-24 09:51:00,19.0,17.0,-100.00,North,10,2.0,5.0,90,0.00,,,0.00,0.000000,,2013-02-24 18:51:00,
2013-02-24 10:22:00,23.0,21.0,-100.00,ENE,65,2.0,5.0,90,0.00,,,0.00,6.000000,,2013-02-24 19:22:00,
2013-02-24 10:32:00,23.0,21.0,-100.00,ENE,65,2.0,5.0,90,0.00,,,0.00,6.000000,,2013-02-24 19:32:00,
2013-02-24 10:41:00,23.0,21.0,-100.00,ENE,65,2.0,5.0,90,0.00,,,0.00,6.000000,,2013-02-24 19:41:00,
2013-02-24 10:51:00,23.0,21.0,-100.00,ENE,65,2.0,5.0,90,0.00,,,0.00,6.000000,,2013-02-24 19:51:00,
2013-02-24 11:21:00,25.0,21.0,-100.00,North,1,2.0,4.0,85,0.00,,,0.00,7.000000,,2013-02-24 20:21:00,
2013-02-24 11:31:00,25.0,21.0,-100.00,North,1,2.0,4.0,85,0.00,,,0.00,7.000000,,2013-02-24 20:31:00,
2013-02-24 11:41:00,25.0,21.0,-100.00,North,1,2.0,4.0,85,0.00,,,0.00,7.000000,,2013-02-24 20:41:00,
2013-02-24 11:52:00,25.0,21.0,-100.00,North,1,2.0,4.0,85,0.00,,,0.00,7.000000,,2013-02-24 20:52:00,
2013-02-24 12:21:00,27.0,23.0,-100.00,North,4,3.0,7.0,84,0.00,,,0.00,10.000000,,2013-02-24 21:21:00,
2013-02-24 12:32:00,27.0,23.0,-100.00,North,4,3.0,7.0,84,0.00,,,0.00,10.000000,,2013-02-24 21:32:00,
2013-02-24 12:41:00,27.0,23.0,-100.00,North,4,3.0,7.0,84,0.00,,,0.00,10.000000,,2013-02-24 21:41:00,
2013-02-24 12:52:00,27.0,23.0,-100.00,North,4,3.0,7.0,84,0.00,,,0.00,10.000000,,2013-02-24 21:52:00,
2013-02-24 13:21:00,29.0,23.0,-100.00,North,4,2.0,6.0,79,0.00,,,0.00,12.000000,,2013-02-24 22:21:00,
2013-02-24 13:31:00,29.0,23.0,-100.00,North,4,2.0,6.0,79,0.00,,,0.00,12.000000,,2013-02-24 22:31:00,
2013-02-24 13:41:00,29.0,23.0,-100.00,North,4,2.0,6.0,79,0.00,,,0.00,12.000000,,2013-02-24 22:41:00,
2013-02-24 13:51:00,29.0,23.0,-100.00,North,4,2.0,6.0,79,0.00,,,0.00,12.000000,,2013-02-24 22:51:00,
2013-02-24 14:21:00,30.0,23.0,-100.00,NE,56,2.0,7.0,76,0.00,,,0.00,9.000000,,2013-02-24 23:21:00,
2013-02-24 14:31:00,30.0,23.0,-100.00,NE,56,2.0,7.0,76,0.00,,,0.00,9.000000,,2013-02-24 23:31:00,
2013-02-24 14:41:00,30.0,23.0,-100.00,NE,56,2.0,7.0,76,0.00,,,0.00,9.000000,,2013-02-24 23:41:00,
2013-02-24 14:52:00,30.0,23.0,-100.00,NE,56,2.0,7.0,76,0.00,,,0.00,9.000000,,2013-02-24 23:52:00,
2013-02-24 15:21:00,29.0,22.0,-100.00,NNW,334,2.0,6.0,76,0.00,,,0.00,9.000000,,2013-02-25 00:21:00,
2013-02-24 15:31:00,29.0,22.0,-100.00,NNW,334,2.0,6.0,76,0.00,,,0.00,9.000000,,2013-02-25 00:31:00,
2013-02-24 15:41:00,29.0,22.0,-100.00,NNW,334,2.0,6.0,76,0.00,,,0.00,9.000000,,2013-02-25 00:41:00,
2013-02-24 15:51:00,29.0,22.0,-100.00,NNW,334,2.0,6.0,76,0.00,,,0.00,9.000000,,2013-02-25 00:51:00,
2013-02-24 16:21:00,29.0,24.0,-100.00,NNE,22,2.0,6.0,81,0.00,,,0.00,4.000000,,2013-02-25 01:21:00,
2013-02-24 16:31:00,29.0,24.0,-100.00,NNE,22,2.0,6.0,81,0.00,,,0.00,4.000000,,2013-02-25 01:31:00,
2013-02-24 16:42:00,29.0,24.0,-100.00,NNE,22,2.0,6.0,81,0.00,,,0.00,4.000000,,2013-02-25 01:42:00,
2013-02-24 16:51:00,29.0,24.0,-100.00,NNE,22,2.0,6.0,81,0.00,,,0.00,4.000000,,2013-02-25 01:51:00,
2013-02-24 17:11:00,29.0,25.0,-100.00,North,4,1.0,3.0,84,-99.99,,,-99.99,,,2013-02-25 02:11:00,
2013-02-24 17:21:00,29.0,25.0,-100.00,North,4,1.0,4.0,84,0.00,,,0.00,4.000000,,2013-02-25 02:21:00,
2013-02-24 17:31:00,29.0,25.0,-100.00,North,4,1.0,4.0,84,0.00,,,0.00,4.000000,,2013-02-25 02:31:00,
2013-02-24 17:41:00,29.0,25.0,-100.00,North,4,1.0,4.0,84,0.00,,,0.00,4.000000,,2013-02-25 02:41:00,
2013-02-24 17:52:00,29.0,25.0,-100.00,North,4,1.0,4.0,84,0.00,,,0.00,4.000000,,2013-02-25 02:52:00,
2013-02-24 18:21:00,28.0,24.0,-100.00,WSW,239,2.0,4.0,86,0.00,,,0.00,1.000000,,2013-02-25 03:21:00,
2013-02-24 18:31:00,28.0,24.0,-100.00,WSW,239,2.0,4.0,86,0.00,,,0.00,1.000000,,2013-02-25 03:31:00,
2013-02-24 18:41:00,28.0,24.0,-100.00,WSW,239,2.0,4.0,86,0.00,,,0.00,1.000000,,2013-02-25 03:41:00,
2013-02-24 18:51:00,28.0,24.0,-100.00,WSW,239,2.0,4.0,86,0.00,,,0.00,1.000000,,2013-02-25 03:51:00,
2013-02-24 19:21:00,26.0,23.0,-100.00,East,87,1.0,3.0,90,0.00,,,0.00,0.000000,,2013-02-25 04:21:00,
2013-02-24 19:31:00,26.0,23.0,-100.00,East,87,1.0,3.0,90,0.00,,,0.00,0.000000,,2013-02-25 04:31:00,
2013-02-24 19:41:00,26.0,23.0,-100.00,East,87,1.0,3.0,90,0.00,,,0.00,0.000000,,2013-02-25 04:41:00,
2013-02-24 19:51:00,26.0,23.0,-100.00,East,87,1.0,3.0,90,0.00,,,0.00,0.000000,,2013-02-25 04:51:00,
2013-02-24 20:22:00,25.0,23.0,-100.00,NE,49,1.0,4.0,91,0.00,,,0.00,0.000000,,2013-02-25 05:22:00,
2013-02-24 20:31:00,25.0,23.0,-100.00,NE,49,1.0,4.0,91,0.00,,,0.00,0.000000,,2013-02-25 05:31:00,
2013-02-24 20:41:00,25.0,23.0,-100.00,NE,49,1.0,4.0,91,0.00,,,0.00,0.000000,,2013-02-25 05:41:00,
2013-02-24 20:52:00,25.0,23.0,-100.00,NE,49,1.0,4.0,91,0.00,,,0.00,0.000000,,2013-02-25 05:52:00,
2013-02-24 21:21:00,21.0,19.0,-100.00,SSW,200,2.0,3.0,91,0.00,,,0.00,0.000000,,2013-02-25 06:21:00,
2013-02-24 21:31:00,21.0,19.0,-100.00,SSW,200,2.0,3.0,91,0.00,,,0.00,0.000000,,2013-02-25 06:31:00,
2013-02-24 21:41:00,21.0,19.0,-100.00,SSW,200,2.0,3.0,91,0.00,,,0.00,0.000000,,2013-02-25 06:41:00,
2013-02-24 21:51:00,21.0,19.0,-100.00,SSW,200,2.0,3.0,91,0.00,,,0.00,0.000000,,2013-02-25 06:51:00,
2013-02-24 22:11:00,17.0,15.0,-100.00,NE,53,2.0,4.0,90,0.00,,,0.00,0.000000,,2013-02-25 07:11:00,
2013-02-24 22:21:00,17.0,15.0,-100.00,NE,53,2.0,4.0,90,0.00,,,0.00,0.000000,,2013-02-25 07:21:00,